"startDT [UTC]","vpos","CH4 [ppm]","stdev(CH4) [ppm]","CO2 [ppm]","stdev(CO2) [ppm]","H2O_reported [%]","stdev(H2O_reported)","CavityPressure [torr]","CavityTemp [C]","OutletValve","CH4_dry [ppm]","CO2_dry [ppm]","DasTemp [C]","EtalonTemp [C]","WarmBoxTemp [C]","MPVPosition","T_ECpre [C]","T_EC1 [C]","T_EC2 [C]","p_inlet [hPa]","p_in [hPa]","p_out [hPa]","T_inlet [C]","RH_inlet [%]","dwpt_inlet [C]","T_vent [C]","RH_vent [%]","dwpt_vent [C]","flow_vent [l min-1]","flow_inlet [l min-1]","dwpt_sample [C]","T_room [C]"
2016-12-28 00:00:00,0.0,1.97043,0.00035,411.603,0.160,0.0310,0.0017,140.000,45.000,31553.37421,1.97106,411.749,32.106,45.073,45.000,0.00,0.06,-272.86,-272.90,-2,530,-935,17.4,1.2,-37.3,17.8,1.3,-36.7,0.47,1.82,-23.8,23.9
2016-12-28 00:01:00,0.0,1.97008,0.00038,411.700,0.075,0.0312,0.0013,139.998,45.000,31553.27852,1.97069,411.852,32.066,45.073,45.000,0.00,0.06,-272.88,-272.90,-2,530,-935,17.4,1.2,-37.3,17.9,1.3,-36.6,0.47,1.92,-23.8,23.9
2016-12-28 00:02:00,0.0,1.96993,0.00040,411.729,0.031,0.0317,0.0026,139.999,45.000,31554.58585,1.97054,411.888,32.065,45.073,45.000,0.00,0.06,-272.88,-272.91,-2,530,-935,17.4,1.3,-37.1,17.8,1.3,-36.5,0.47,2.02,-23.8,23.9
2016-12-28 00:03:00,0.0,1.97035,0.00046,411.702,0.043,0.0331,0.0020,140.000,45.000,31553.57545,1.97096,411.865,32.063,45.073,45.000,0.00,0.06,-272.87,-272.90,-2,529,-935,17.4,1.3,-36.8,17.8,1.3,-36.2,0.47,1.93,-23.8,23.9
2016-12-28 00:04:00,0.0,1.97095,0.00044,411.858,0.053,0.0344,0.0034,139.998,45.000,31554.18374,1.97161,412.026,32.066,45.073,45.000,0.00,0.06,-272.87,-272.90,-2,530,-935,17.4,1.3,-36.6,17.8,1.4,-36.0,0.47,1.82,-23.8,23.9
2016-12-28 00:05:00,0.0,1.97184,0.00072,411.755,0.083,0.0330,0.0016,140.000,45.000,31553.89025,1.97247,411.921,32.080,45.073,45.000,0.00,0.06,-272.87,-272.91,-2,530,-935,17.4,1.3,-36.4,17.9,1.4,-35.8,0.47,1.91,-23.8,23.9
2016-12-28 00:06:00,0.0,1.97035,0.00051,411.785,0.040,0.0322,0.0017,139.999,45.000,31555.35911,1.97099,411.944,32.085,45.073,45.000,0.00,0.06,-272.87,-272.90,-2,530,-935,17.4,1.3,-36.8,17.8,1.4,-35.9,0.47,2.02,-23.8,24.0
2016-12-28 00:07:00,0.0,1.97027,0.00039,411.762,0.032,0.0304,0.0012,139.997,45.000,31553.25354,1.97090,411.912,32.106,45.073,45.000,0.00,0.06,-272.87,-272.90,-2,530,-935,17.4,1.2,-37.4,17.8,1.3,-36.3,0.47,1.94,-23.8,24.0
2016-12-28 00:08:00,0.0,1.97433,0.00248,411.530,0.244,0.0291,0.0019,139.998,45.000,31554.77898,1.97465,411.682,32.122,45.073,45.000,0.00,0.06,-272.88,-272.90,-2,530,-935,17.4,1.2,-37.9,17.8,1.3,-36.9,0.47,1.83,-23.8,24.0
2016-12-28 00:09:00,0.0,1.97537,0.00052,411.314,0.048,0.0271,0.0023,139.998,45.000,31554.44968,1.97595,411.448,32.124,45.072,45.000,0.00,0.06,-272.88,-272.90,-2,530,-935,17.4,1.1,-38.7,17.8,1.2,-37.4,0.47,1.90,-23.8,23.9
2016-12-28 00:10:00,0.0,1.97497,0.00037,411.278,0.050,0.0259,0.0020,140.000,45.000,31555.65345,1.97549,411.406,32.124,45.072,45.000,0.00,0.06,-272.88,-272.90,-2,530,-935,17.4,1.0,-39.2,17.8,1.1,-37.9,0.47,2.01,-23.8,23.9
2016-12-28 00:11:00,0.0,1.97447,0.00045,411.287,0.040,0.0262,0.0015,140.000,45.000,31557.64487,1.97500,411.415,32.123,45.072,45.000,0.00,0.06,-272.88,-272.90,-2,530,-935,17.4,1.0,-39.4,17.8,1.1,-38.2,0.47,1.95,-23.8,24.0
2016-12-28 00:12:00,0.0,1.97435,0.00038,411.303,0.033,0.0268,0.0021,140.000,45.000,31559.16807,1.97489,411.435,32.124,45.072,45.000,0.00,0.06,-272.87,-272.91,-2,530,-935,17.4,1.0,-39.3,17.9,1.1,-38.2,0.47,1.83,-23.8,24.0
2016-12-28 00:13:00,0.0,1.97475,0.00044,411.391,0.040,0.0268,0.0020,139.999,45.000,31557.60067,1.97521,411.520,32.125,45.073,45.000,0.00,0.06,-272.87,-272.90,-2,530,-935,17.4,1.0,-39.3,17.8,1.1,-38.3,0.47,1.88,-23.8,23.9
2016-12-28 00:14:00,0.0,1.97505,0.00056,411.498,0.054,0.0248,0.0019,139.999,45.000,31556.51924,1.97557,411.620,32.125,45.073,45.000,0.00,0.06,-272.87,-272.90,-2,529,-935,17.4,1.0,-39.7,17.8,1.1,-38.5,0.47,2.00,-23.8,23.9
2016-12-28 00:15:00,0.0,1.97469,0.00050,411.568,0.071,0.0255,0.0017,139.998,45.000,31555.04145,1.97517,411.691,32.125,45.073,45.000,0.00,0.06,-272.87,-272.91,-2,530,-935,17.4,1.0,-39.6,17.8,1.1,-38.5,0.47,1.97,-23.8,23.9
2016-12-28 00:16:00,0.0,1.97440,0.00055,411.662,0.041,0.0255,0.0016,140.000,45.000,31556.63136,1.97494,411.790,32.125,45.073,45.000,0.00,0.06,-272.87,-272.90,-2,530,-935,17.4,1.0,-39.5,17.8,1.1,-38.5,0.47,1.84,-23.8,24.0
2016-12-28 00:17:00,0.0,1.97351,0.00039,411.683,0.079,0.0263,0.0017,140.000,45.000,31558.42268,1.97405,411.812,32.125,45.073,45.000,0.00,0.06,-272.87,-272.90,-2,530,-935,17.4,1.0,-39.4,17.8,1.1,-38.5,0.47,1.87,-23.8,24.0
2016-12-28 00:18:00,0.0,1.97396,0.00107,411.804,0.050,0.0265,0.0013,139.998,45.000,31556.63755,1.97443,411.934,32.125,45.073,45.000,0.00,0.06,-272.88,-272.91,-2,529,-935,17.4,1.0,-39.0,17.8,1.1,-38.3,0.47,2.00,-23.8,24.0
2016-12-28 00:19:00,0.0,1.97349,0.00054,411.826,0.037,0.0272,0.0015,139.997,45.000,31557.11164,1.97405,411.961,32.117,45.073,45.000,0.00,0.06,-272.88,-272.90,-2,529,-935,17.4,1.0,-39.0,17.8,1.1,-38.2,0.47,1.97,-23.8,24.0
2016-12-28 00:20:00,0.0,1.97303,0.00060,411.807,0.029,0.0270,0.0022,139.998,45.000,31556.36451,1.97360,411.939,32.118,45.073,45.000,0.00,0.06,-272.87,-272.90,-2,530,-935,17.4,1.1,-38.8,17.9,1.1,-38.0,0.47,1.85,-23.8,23.9
2016-12-28 00:21:00,0.0,1.97197,0.00038,411.865,0.038,0.0274,0.0014,139.998,45.000,31556.88497,1.97252,412.000,32.099,45.073,45.000,0.00,0.06,-272.87,-272.90,-2,530,-935,17.4,1.1,-38.6,17.8,1.1,-38.0,0.47,1.86,-23.8,24.0
2016-12-28 00:22:00,0.0,1.97081,0.00052,412.121,0.113,0.0288,0.0017,139.997,45.000,31556.26077,1.97139,412.255,32.095,45.073,45.000,0.00,0.06,-272.88,-272.91,-2,530,-935,17.4,1.1,-38.2,17.8,1.2,-37.6,0.47,1.99,-23.8,23.9
2016-12-28 00:23:00,0.0,1.97029,0.00034,412.662,0.315,0.0319,0.0017,139.998,45.000,31555.51344,1.97092,412.803,32.101,45.073,45.000,0.00,0.06,-272.87,-272.90,-1,530,-935,17.4,1.2,-37.5,17.8,1.2,-37.2,0.47,1.99,-23.8,24.0
2016-12-28 00:24:00,0.0,1.97034,0.00040,412.912,0.219,0.0323,0.0019,139.999,45.000,31554.91663,1.97095,413.087,32.109,45.073,45.000,0.00,0.06,-272.87,-272.90,-2,530,-935,17.4,1.3,-36.8,17.8,1.3,-36.5,0.47,1.86,-23.7,24.0
2016-12-28 00:25:00,0.0,1.97064,0.00052,412.406,0.120,0.0324,0.0017,140.002,45.000,31556.28909,1.97123,412.571,32.119,45.073,45.000,0.00,0.06,-272.87,-272.91,-2,530,-935,17.4,1.3,-36.5,17.8,1.4,-36.1,0.47,1.84,-23.8,24.0
2016-12-28 00:26:00,0.0,1.97159,0.00035,412.244,0.029,0.0334,0.0015,139.997,45.000,31554.38782,1.97223,412.410,32.119,45.073,45.000,0.00,0.06,-272.87,-272.90,-2,530,-935,17.4,1.3,-36.5,17.9,1.4,-36.0,0.47,1.97,-23.7,24.0
2016-12-28 00:27:00,0.0,1.97178,0.00053,412.203,0.038,0.0336,0.0019,139.999,45.000,31556.83293,1.97243,412.370,32.090,45.073,45.000,0.00,0.06,-272.87,-272.89,-2,530,-935,17.4,1.3,-36.5,17.9,1.4,-35.8,0.47,2.00,-23.8,24.0
2016-12-28 00:28:00,0.0,1.97257,0.00046,412.138,0.039,0.0331,0.0022,139.999,45.000,31557.20048,1.97322,412.303,32.087,45.073,45.000,0.00,0.06,-272.87,-272.90,-2,530,-935,17.4,1.3,-36.6,17.9,1.4,-35.9,0.47,1.87,-23.8,24.0
2016-12-28 00:29:00,0.0,1.97245,0.00030,412.039,0.039,0.0329,0.0025,139.998,45.000,31558.14937,1.97307,412.203,32.089,45.073,45.000,0.00,0.06,-272.87,-272.91,-2,530,-935,17.4,1.3,-36.8,17.8,1.4,-36.1,0.47,1.84,-23.8,24.0
2016-12-28 00:30:00,0.0,1.97170,0.00048,412.111,0.050,0.0326,0.0017,139.999,45.000,31559.42426,1.97237,412.270,32.106,45.073,45.000,0.00,0.06,-272.87,-272.90,-2,530,-935,17.4,1.3,-36.7,17.8,1.4,-36.0,0.47,1.97,-23.8,23.9
2016-12-28 00:31:00,0.0,1.97054,0.00047,412.148,0.028,0.0332,0.0017,139.998,45.000,31558.95951,1.97122,412.313,32.107,45.073,45.000,0.00,0.06,-272.87,-272.91,-2,530,-935,17.5,1.3,-36.6,17.9,1.4,-36.1,0.47,2.00,-23.8,24.0
2016-12-28 00:32:00,0.0,1.97062,0.00060,412.175,0.050,0.0346,0.0019,139.999,45.000,31559.41294,1.97127,412.345,32.125,45.073,45.000,0.00,0.06,-272.87,-272.91,-2,530,-935,17.5,1.3,-36.5,17.9,1.4,-36.0,0.47,1.88,-23.7,24.0
2016-12-28 00:33:00,0.0,1.97065,0.00050,412.175,0.100,0.0339,0.0010,139.998,45.000,31558.00548,1.97135,412.338,32.124,45.073,45.000,0.00,0.06,-272.87,-272.90,-2,529,-935,17.5,1.3,-36.4,17.8,1.4,-35.9,0.47,1.84,-23.8,23.9
2016-12-28 00:34:00,0.0,1.97022,0.00036,412.422,0.132,0.0344,0.0018,140.000,45.000,31558.93577,1.97085,412.595,32.124,45.073,45.000,0.00,0.06,-272.87,-272.90,-2,530,-935,17.5,1.4,-36.2,17.9,1.4,-35.8,0.47,1.95,-23.8,24.0
2016-12-28 00:35:00,0.0,1.97037,0.00037,412.941,0.475,0.0343,0.0018,139.998,45.000,31558.54223,1.97102,413.111,32.126,45.073,45.000,0.00,0.06,-272.88,-272.90,-2,530,-935,17.5,1.4,-36.3,17.9,1.4,-35.6,0.47,2.00,-23.7,24.0
2016-12-28 00:36:00,0.0,1.97029,0.00038,412.738,0.355,0.0349,0.0016,140.000,45.000,31560.28560,1.97098,412.906,32.126,45.073,45.000,0.00,0.06,-272.87,-272.90,-2,530,-935,17.5,1.4,-36.2,17.9,1.4,-35.6,0.47,1.90,-23.8,24.0
2016-12-28 00:37:00,0.0,1.97015,0.00044,412.863,0.229,0.0355,0.0030,139.999,45.000,31560.65833,1.97085,413.030,32.125,45.073,45.000,0.00,0.06,-272.87,-272.89,-2,530,-935,17.5,1.4,-36.0,17.9,1.4,-35.5,0.47,1.84,-23.7,24.0
2016-12-28 00:38:00,0.0,1.96977,0.00038,412.951,0.171,0.0359,0.0021,139.999,45.000,31561.73014,1.97047,413.135,32.125,45.073,45.000,0.00,0.06,-272.87,-272.90,-2,530,-935,17.5,1.4,-35.9,17.9,1.5,-35.3,0.47,1.94,-23.7,24.0
2016-12-28 00:39:00,0.0,1.96995,0.00038,412.930,0.115,0.0342,0.0016,139.995,45.000,31559.99000,1.97062,413.095,32.124,45.073,45.000,0.00,0.06,-272.88,-272.91,-2,530,-935,17.5,1.4,-35.9,17.9,1.5,-35.3,0.47,2.01,-23.8,24.0
2016-12-28 00:40:00,0.0,1.96991,0.00030,413.099,0.074,0.0353,0.0019,139.999,45.000,31561.65155,1.97060,413.270,32.125,45.073,45.000,0.00,0.06,-272.87,-272.90,-2,530,-935,17.5,1.4,-36.1,17.9,1.4,-35.4,0.47,1.91,-23.7,24.0
2016-12-28 00:41:00,0.0,1.96994,0.00035,413.292,0.097,0.0346,0.0012,140.000,45.000,31561.83178,1.97062,413.464,32.124,45.073,45.000,0.00,0.06,-272.87,-272.90,-2,530,-935,17.5,1.4,-35.9,17.9,1.5,-35.3,0.47,1.82,-23.7,24.0
2016-12-28 00:42:00,0.0,1.96996,0.00029,413.411,0.101,0.0356,0.0018,140.000,45.000,31562.91758,1.97064,413.586,32.125,45.073,45.000,0.00,0.06,-272.87,-272.91,-2,530,-935,17.5,1.4,-35.8,17.9,1.5,-35.2,0.47,1.93,-23.7,24.0
2016-12-28 00:43:00,0.0,1.97068,0.00096,412.874,0.294,0.0358,0.0025,139.999,45.000,31561.14726,1.97131,413.066,32.127,45.073,45.000,0.00,0.06,-272.86,-272.91,-2,530,-935,17.5,1.4,-36.0,17.9,1.5,-35.3,0.47,2.02,-23.7,24.0
2016-12-28 00:44:00,0.0,1.97200,0.00038,412.464,0.045,0.0345,0.0017,140.000,45.000,31561.84071,1.97266,412.633,32.126,45.073,45.000,0.00,0.06,-272.86,-272.90,-2,530,-935,17.5,1.3,-36.4,17.9,1.4,-35.5,0.47,1.91,-23.8,24.0
2016-12-28 00:45:00,0.0,1.97196,0.00044,412.521,0.041,0.0307,0.0016,140.001,45.000,31563.07352,1.97258,412.673,32.129,45.073,45.000,0.00,0.06,-272.87,-272.91,-2,530,-935,17.5,1.2,-37.2,17.9,1.4,-36.1,0.47,1.83,-23.7,24.0
2016-12-28 00:46:00,0.0,1.97113,0.00030,412.794,0.111,0.0305,0.0020,139.999,45.000,31562.80698,1.97175,412.939,32.130,45.073,45.000,0.00,0.06,-272.88,-272.90,-2,530,-935,17.5,1.2,-37.7,17.9,1.3,-36.6,0.47,1.93,-23.7,24.0
2016-12-28 00:47:00,0.0,1.97110,0.00037,413.019,0.108,0.0296,0.0011,139.998,45.000,31563.12726,1.97165,413.166,32.126,45.073,45.000,0.00,0.06,-272.87,-272.90,-2,530,-935,17.5,1.2,-37.7,17.9,1.3,-36.9,0.47,2.01,-23.7,24.0
2016-12-28 00:48:00,0.0,1.97117,0.00044,412.943,0.089,0.0303,0.0013,139.999,45.000,31562.57431,1.97175,413.097,32.132,45.073,45.000,0.00,0.06,-272.87,-272.91,-2,530,-935,17.5,1.2,-37.8,17.9,1.2,-37.0,0.47,1.92,-23.7,24.0
2016-12-28 00:49:00,0.0,1.97310,0.00073,412.721,0.109,0.0298,0.0016,140.000,45.000,31562.18701,1.97360,412.872,32.143,45.073,45.000,0.00,0.06,-272.88,-272.91,-2,530,-935,17.5,1.2,-37.7,17.9,1.2,-37.0,0.47,1.83,-23.7,24.0
2016-12-28 00:50:00,0.0,1.97389,0.00051,412.495,0.119,0.0301,0.0016,140.000,45.000,31561.90593,1.97447,412.649,32.138,45.073,45.000,0.00,0.06,-272.87,-272.90,-2,530,-935,17.5,1.2,-37.8,17.9,1.2,-37.1,0.47,1.92,-23.7,24.0
2016-12-28 00:51:00,0.0,1.97444,0.00042,412.219,0.095,0.0310,0.0016,140.000,45.000,31562.33251,1.97505,412.374,32.183,45.073,45.000,0.00,0.06,-272.87,-272.90,-2,530,-935,17.5,1.2,-37.5,17.9,1.3,-36.8,0.47,2.02,-23.7,24.0
2016-12-28 00:52:00,0.0,1.97458,0.00032,412.142,0.050,0.0310,0.0013,140.000,45.000,31561.30407,1.97517,412.297,32.190,45.072,45.000,0.00,0.06,-272.88,-272.91,-2,530,-935,17.5,1.2,-37.2,17.9,1.3,-36.5,0.47,1.93,-23.7,24.0
2016-12-28 00:53:00,0.0,1.97445,0.00037,412.182,0.051,0.0317,0.0021,140.000,45.000,31561.24203,1.97510,412.339,32.188,45.072,45.000,0.00,0.06,-272.87,-272.90,-2,530,-935,17.5,1.2,-37.3,17.9,1.3,-36.6,0.47,1.82,-23.7,24.0
2016-12-28 00:54:00,0.0,1.97475,0.00030,412.108,0.072,0.0308,0.0021,140.000,45.000,31562.03064,1.97530,412.257,32.188,45.072,45.000,0.00,0.06,-272.86,-272.90,-2,530,-935,17.5,1.2,-37.3,17.9,1.3,-36.6,0.47,1.90,-23.7,24.0
2016-12-28 00:55:00,0.0,1.97421,0.00060,412.812,0.251,0.0307,0.0016,139.999,45.000,31560.55095,1.97487,412.949,32.186,45.072,45.000,0.00,0.06,-272.87,-272.90,-2,530,-935,17.5,1.2,-37.5,17.9,1.3,-36.6,0.47,2.01,-23.7,24.0
2016-12-28 00:56:00,0.0,1.97351,0.00042,413.163,0.118,0.0303,0.0018,140.002,45.000,31561.28369,1.97411,413.315,32.188,45.072,45.000,0.00,0.06,-272.87,-272.91,-2,530,-935,17.5,1.2,-37.6,17.9,1.3,-36.8,0.47,1.94,-23.7,24.0
2016-12-28 00:57:00,0.0,1.97263,0.00032,412.933,0.184,0.0305,0.0019,139.999,45.000,31562.73439,1.97321,413.080,32.185,45.073,45.000,0.00,0.06,-272.86,-272.90,-2,530,-935,17.5,1.2,-37.7,17.9,1.3,-36.8,0.47,1.83,-23.7,24.0
2016-12-28 00:58:00,0.0,1.97317,0.00050,413.140,0.130,0.0303,0.0014,139.997,45.000,31561.78769,1.97378,413.297,32.184,45.073,45.000,0.00,0.06,-272.87,-272.90,-2,530,-935,17.5,1.2,-37.6,17.9,1.3,-36.8,0.47,1.89,-23.7,24.0
2016-12-28 00:59:00,0.0,1.97286,0.00041,412.853,0.038,0.0306,0.0018,139.998,45.000,31561.43223,1.97347,413.006,32.171,45.073,45.000,0.00,0.06,-272.88,-272.91,-2,530,-935,17.5,1.2,-37.5,17.9,1.3,-36.8,0.47,2.01,-23.7,24.0
2016-12-28 01:00:00,0.0,1.97249,0.00052,412.794,0.031,0.0306,0.0018,139.999,45.000,31561.25554,1.97310,412.946,32.178,45.073,45.000,0.00,0.06,-272.87,-272.90,-2,530,-935,17.5,1.2,-37.5,17.9,1.3,-36.8,0.47,1.95,-23.7,24.0
2016-12-28 01:01:00,0.0,1.97341,0.00146,412.998,0.220,0.0310,0.0013,140.000,45.000,31562.04416,1.97387,413.146,32.188,45.073,45.000,0.00,0.06,-272.86,-272.90,-2,530,-935,17.5,1.2,-37.4,17.9,1.3,-36.6,0.47,1.84,-23.7,24.0
2016-12-28 01:02:00,0.0,1.97592,0.00030,413.325,0.211,0.0307,0.0022,139.994,45.000,31560.21166,1.97653,413.466,32.186,45.073,45.000,0.00,0.06,-272.88,-272.90,-2,530,-935,17.5,1.2,-37.3,17.9,1.3,-36.6,0.47,1.87,-23.7,24.0
2016-12-28 01:03:00,0.0,1.97525,0.00034,414.399,0.216,0.0305,0.0017,140.001,45.000,31562.83067,1.97587,414.544,32.188,45.073,45.000,0.00,0.06,-272.88,-272.90,-2,530,-935,17.5,1.2,-37.5,17.9,1.3,-36.6,0.47,2.01,-23.7,24.0
2016-12-28 01:04:00,0.0,1.97505,0.00029,414.010,0.110,0.0311,0.0019,139.998,45.000,31562.16649,1.97565,414.171,32.191,45.073,45.000,0.00,0.06,-272.87,-272.89,-2,530,-935,17.5,1.2,-37.5,17.9,1.3,-36.8,0.47,1.97,-23.7,24.0
2016-12-28 01:05:00,0.0,1.97298,0.00116,413.122,0.385,0.0306,0.0014,140.000,45.000,31563.56446,1.97367,413.288,32.216,45.073,45.000,0.00,0.06,-272.87,-272.90,-2,530,-935,17.5,1.2,-37.7,17.9,1.3,-36.8,0.47,1.84,-23.7,24.0
2016-12-28 01:06:00,0.0,1.97150,0.00077,412.647,0.259,0.0299,0.0020,139.998,45.000,31564.02834,1.97211,412.804,32.215,45.073,45.000,0.00,0.06,-272.88,-272.90,-2,530,-935,17.5,1.2,-37.7,17.9,1.3,-36.9,0.47,1.86,-23.7,24.0
2016-12-28 01:07:00,0.0,1.97109,0.00045,412.342,0.192,0.0297,0.0023,139.997,45.000,31562.14949,1.97165,412.484,32.221,45.073,45.000,0.00,0.06,-272.87,-272.90,-2,530,-935,17.5,1.2,-37.7,17.9,1.2,-36.9,0.47,1.99,-23.7,24.0
2016-12-28 01:08:00,0.0,1.97072,0.00040,413.825,1.149,0.0316,0.0014,139.996,45.000,31562.97347,1.97136,413.946,32.207,45.073,45.000,0.00,0.06,-272.86,-272.91,-2,530,-935,17.5,1.2,-37.4,18.0,1.3,-36.7,0.47,1.98,-23.7,24.0
2016-12-28 01:09:00,0.0,1.97121,0.00031,414.844,0.117,0.0319,0.0015,139.999,45.000,31562.14673,1.97181,415.008,32.219,45.073,45.000,0.00,0.06,-272.87,-272.91,-2,530,-935,17.5,1.2,-37.2,18.0,1.3,-36.6,0.47,1.85,-23.7,24.0
2016-12-28 01:10:00,0.0,1.97110,0.00027,414.824,0.139,0.0313,0.0014,139.999,45.000,31561.86508,1.97172,414.975,32.245,45.073,45.000,0.00,0.06,-272.86,-272.90,-2,530,-935,17.5,1.2,-37.3,18.0,1.3,-36.6,0.47,1.85,-23.7,24.0
2016-12-28 01:11:00,0.0,1.97136,0.00050,414.756,0.151,0.0313,0.0020,139.999,45.000,31561.89866,1.97192,414.919,32.244,45.073,45.000,0.00,0.06,-272.87,-272.90,-2,530,-935,17.5,1.2,-37.2,18.0,1.3,-36.5,0.47,1.98,-23.7,24.0
2016-12-28 01:12:00,0.0,1.97335,0.00070,414.042,0.307,0.0319,0.0020,139.999,45.000,31560.47219,1.97394,414.213,32.225,45.073,45.000,0.00,0.06,-272.88,-272.91,-2,530,-935,17.5,1.3,-37.1,17.9,1.3,-36.4,0.47,2.01,-23.7,24.0
2016-12-28 01:13:00,0.0,1.97387,0.00050,413.622,0.160,0.0323,0.0015,140.000,45.000,31560.16975,1.97451,413.779,32.202,45.073,45.000,0.00,0.06,-272.87,-272.90,-2,530,-935,17.5,1.3,-37.0,18.0,1.3,-36.4,0.47,1.87,-23.7,24.0
2016-12-28 01:14:00,0.0,1.97437,0.00062,413.701,0.117,0.0316,0.0013,139.998,45.000,31560.60500,1.97489,413.859,32.213,45.073,45.000,0.00,0.06,-272.88,-272.90,-2,530,-935,17.5,1.3,-37.1,18.0,1.3,-36.4,0.47,1.83,-23.7,24.0
2016-12-28 01:15:00,0.0,1.97455,0.00063,413.976,0.044,0.0314,0.0013,140.000,45.000,31562.94632,1.97514,414.131,32.229,45.073,45.000,0.00,0.06,-272.88,-272.90,-2,530,-935,17.5,1.2,-37.2,18.0,1.3,-36.3,0.47,1.96,-23.7,24.0
2016-12-28 01:16:00,0.0,1.97668,0.00101,413.752,0.434,0.0317,0.0018,139.997,45.000,31560.91725,1.97728,413.907,32.205,45.073,45.000,0.00,0.06,-272.88,-272.91,-2,530,-935,17.5,1.2,-37.3,17.9,1.3,-36.6,0.47,2.01,-23.7,24.0
2016-12-28 01:17:00,0.0,1.97532,0.00134,414.581,0.564,0.0307,0.0014,140.000,45.000,31559.82266,1.97605,414.722,32.189,45.073,45.000,0.00,0.06,-272.87,-272.90,-2,530,-935,17.5,1.2,-37.5,17.9,1.3,-36.7,0.47,1.89,-23.7,24.0
2016-12-28 01:18:00,0.0,1.97294,0.00162,414.652,0.308,0.0304,0.0020,140.000,45.000,31559.96969,1.97343,414.800,32.188,45.073,45.000,0.00,0.06,-272.87,-272.90,-2,530,-935,17.5,1.2,-37.7,18.0,1.3,-36.8,0.47,1.83,-23.7,24.0
2016-12-28 01:19:00,0.0,1.97657,0.00071,414.579,0.371,0.0303,0.0012,140.002,45.000,31561.97072,1.97708,414.747,32.188,45.073,45.000,0.00,0.06,-272.88,-272.90,-2,530,-935,17.5,1.2,-37.7,18.0,1.3,-36.8,0.47,1.94,-23.7,24.1
2016-12-28 01:20:00,0.0,1.97556,0.00068,414.793,0.272,0.0293,0.0013,140.000,45.000,31563.17332,1.97623,414.921,32.188,45.073,45.000,0.00,0.06,-272.87,-272.90,-2,530,-935,17.5,1.1,-38.0,18.0,1.2,-37.0,0.47,2.01,-23.7,24.0
2016-12-28 01:21:00,0.0,1.97570,0.00184,414.569,0.593,0.0283,0.0016,140.000,45.000,31564.46484,1.97608,414.739,32.189,45.073,45.000,0.00,0.06,-272.86,-272.90,-2,530,-935,17.5,1.1,-38.3,18.0,1.2,-37.3,0.47,1.90,-23.7,24.0
2016-12-28 01:22:00,0.0,1.97804,0.00161,413.843,0.646,0.0276,0.0021,140.000,45.000,31562.11352,1.97865,413.962,32.191,45.073,45.000,0.00,0.06,-272.87,-272.91,-2,530,-935,17.5,1.1,-38.6,18.0,1.2,-37.5,0.47,1.83,-23.7,24.0
2016-12-28 01:23:00,0.0,1.97818,0.00082,413.881,0.329,0.0274,0.0014,140.000,45.000,31562.79616,1.97864,414.031,32.192,45.073,45.000,0.00,0.06,-272.88,-272.91,-2,530,-935,17.5,1.1,-38.7,18.0,1.1,-37.7,0.47,1.92,-23.7,24.1
2016-12-28 01:24:00,0.0,1.97912,0.00033,413.718,0.241,0.0268,0.0019,140.000,45.000,31561.96714,1.97963,413.851,32.188,45.073,45.000,0.00,0.06,-272.87,-272.90,-2,530,-935,17.5,1.0,-39.0,18.0,1.1,-37.9,0.47,2.02,-23.7,24.1
2016-12-28 01:25:00,0.0,1.97993,0.00063,413.070,0.263,0.0267,0.0019,139.999,45.000,31563.06690,1.98044,413.215,32.188,45.073,45.000,0.00,0.06,-272.87,-272.91,-2,530,-935,17.5,1.0,-38.9,18.0,1.1,-37.9,0.47,1.93,-23.7,24.0
2016-12-28 01:26:00,0.0,1.97945,0.00077,413.923,0.664,0.0269,0.0021,139.997,45.000,31561.34288,1.98002,414.033,32.181,45.073,45.000,0.00,0.06,-272.87,-272.91,-2,530,-935,17.6,1.0,-38.9,18.0,1.1,-38.1,0.47,1.82,-23.7,24.0
2016-12-28 01:27:00,0.0,1.97749,0.00073,415.198,0.389,0.0273,0.0018,140.002,45.000,31563.01410,1.97807,415.319,32.179,45.073,45.000,0.00,0.06,-272.87,-272.90,-2,530,-935,17.6,1.0,-39.2,18.0,1.1,-38.2,0.47,1.89,-23.7,24.0
2016-12-28 01:28:00,0.0,1.97466,0.00132,416.881,0.964,0.0258,0.0012,139.999,45.000,31561.33038,1.97524,416.973,32.186,45.073,45.000,0.00,0.06,-272.87,-272.91,-2,530,-935,17.6,1.0,-39.2,18.0,1.1,-38.2,0.47,2.01,-23.7,24.1
2016-12-28 01:29:00,0.0,1.97534,0.00074,416.314,0.596,0.0269,0.0020,139.999,45.000,31560.96526,1.97587,416.460,32.188,45.073,45.000,0.00,0.06,-272.87,-272.91,-2,530,-935,17.5,1.0,-39.0,18.0,1.1,-38.2,0.47,1.96,-23.7,24.1
2016-12-28 01:30:00,0.0,1.97411,0.00045,417.425,0.225,0.0275,0.0018,139.998,45.000,31559.88698,1.97464,417.561,32.203,45.073,45.000,0.00,0.06,-272.88,-272.90,-2,530,-935,17.6,1.1,-38.8,18.0,1.1,-38.1,0.47,1.83,-23.7,24.1
2016-12-28 01:31:00,0.0,1.97545,0.00060,416.095,0.368,0.0270,0.0014,139.998,45.000,31562.79317,1.97598,416.257,32.235,45.073,45.000,0.00,0.06,-272.87,-272.90,-2,530,-935,17.6,1.1,-38.8,18.0,1.1,-38.0,0.47,1.87,-23.7,24.1
2016-12-28 01:32:00,0.0,1.97501,0.00037,415.442,0.182,0.0273,0.0019,139.997,45.000,31563.58794,1.97555,415.581,32.237,45.072,45.000,0.00,0.06,-272.88,-272.90,-2,530,-935,17.6,1.0,-39.0,18.0,1.1,-38.1,0.47,2.00,-23.7,24.1
2016-12-28 01:33:00,0.0,1.97431,0.00059,415.388,0.107,0.0267,0.0016,140.000,45.000,31564.28447,1.97486,415.524,32.243,45.072,45.000,0.00,0.06,-272.87,-272.91,-2,530,-935,17.6,1.0,-39.1,18.0,1.1,-38.2,0.47,1.98,-23.7,24.0
2016-12-28 01:34:00,0.0,1.97330,0.00049,414.347,0.361,0.0263,0.0022,139.999,45.000,31563.25227,1.97381,414.479,32.247,45.072,45.000,0.00,0.06,-272.87,-272.90,-2,530,-935,17.6,1.0,-39.0,18.0,1.1,-38.2,0.47,1.85,-23.7,24.0
2016-12-28 01:35:00,0.0,1.97260,0.00045,414.030,0.498,0.0270,0.0019,139.998,45.000,31564.99016,1.97314,414.187,32.235,45.072,45.000,0.00,0.06,-272.87,-272.90,-2,530,-935,17.6,1.0,-38.8,18.0,1.1,-38.2,0.47,1.85,-23.7,24.1
2016-12-28 01:36:00,0.0,1.97249,0.00054,413.870,0.181,0.0280,0.0019,139.997,45.000,31564.69006,1.97304,413.999,32.227,45.072,45.000,0.00,0.06,-272.87,-272.91,-2,530,-935,17.6,1.1,-38.5,18.0,1.1,-37.8,0.47,1.98,-23.7,24.1
2016-12-28 01:37:00,0.0,1.97187,0.00044,414.704,0.176,0.0288,0.0018,139.997,45.000,31564.62326,1.97242,414.834,32.249,45.072,45.000,0.00,0.06,-272.87,-272.90,-2,530,-935,17.6,1.1,-38.1,18.0,1.2,-37.6,0.47,2.00,-23.7,24.1
2016-12-28 01:38:00,0.0,1.97211,0.00040,415.319,0.222,0.0302,0.0012,139.998,45.000,31565.01453,1.97271,415.463,32.249,45.073,45.000,0.00,0.06,-272.86,-272.90,-2,530,-935,17.6,1.2,-37.7,18.0,1.2,-37.3,0.47,1.86,-23.7,24.0
2016-12-28 01:39:00,0.0,1.97212,0.00043,415.123,0.111,0.0307,0.0019,139.999,45.000,31566.38071,1.97268,415.281,32.246,45.073,45.000,0.00,0.06,-272.87,-272.91,-2,530,-935,17.6,1.2,-37.5,18.0,1.2,-37.0,0.47,1.84,-23.7,24.1
2016-12-28 01:40:00,0.0,1.97217,0.00033,415.030,0.203,0.0309,0.0016,140.000,45.000,31565.46722,1.97279,415.191,32.250,45.073,45.000,0.00,0.06,-272.88,-272.90,-2,530,-935,17.6,1.2,-37.3,18.0,1.3,-36.7,0.47,1.97,-23.7,24.1
2016-12-28 01:41:00,0.0,1.97262,0.00036,414.857,0.338,0.0316,0.0022,139.998,45.000,31563.63356,1.97323,415.002,32.252,45.073,45.000,0.00,0.06,-272.87,-272.89,-2,530,-935,17.6,1.3,-37.0,18.0,1.3,-36.6,0.47,2.00,-23.7,24.1
2016-12-28 01:42:00,0.0,1.97264,0.00044,415.469,0.131,0.0322,0.0015,140.001,45.000,31563.42599,1.97324,415.632,32.262,45.073,45.000,0.00,0.06,-272.87,-272.91,-2,530,-935,17.6,1.3,-37.0,18.0,1.3,-36.4,0.47,1.87,-23.7,24.1
2016-12-28 01:43:00,0.0,1.97304,0.00041,414.969,0.169,0.0319,0.0021,139.997,45.000,31563.31413,1.97367,415.134,32.251,45.073,45.000,0.00,0.06,-272.88,-272.91,-2,530,-935,17.6,1.3,-37.0,18.0,1.3,-36.4,0.47,1.83,-23.7,24.1
2016-12-28 01:44:00,0.0,1.97285,0.00035,414.831,0.124,0.0320,0.0014,139.998,45.000,31565.97228,1.97346,414.994,32.250,45.073,45.000,0.00,0.06,-272.87,-272.90,-2,530,-935,17.6,1.3,-37.0,18.0,1.3,-36.4,0.47,1.95,-23.7,24.1
2016-12-28 01:45:00,0.0,1.97309,0.00039,414.778,0.073,0.0323,0.0018,139.999,45.000,31565.19930,1.97370,414.938,32.252,45.073,45.000,0.00,0.06,-272.87,-272.90,-2,530,-935,17.6,1.3,-36.9,18.0,1.3,-36.3,0.47,2.01,-23.7,24.1